User: anonymous   Login
Location: ????????
(38.4362°N, 22.8767°E)
Time: 17:30:50
(UTC+00:00)
Language:

Cosmos 1515 Rocket - Orbit

View from above orbital plane
View from above orbital plane
View from above satellite
View from above satellite

Ground track
Ground track

The orbit data is extracted from the following two-line orbital elements,

1 14552U 83122B   24170.82852742  .00000558  00000-0  63016-4 0  9993
2 14552  82.5231 200.2685 0016856   4.7938 355.3435 14.84678857167482
Epoch (UTC): 18 June 2024 19:53:04
Eccentricity: 0.0016856
inclination: 82.5231°
perigee height: 603 km
apogee height: 626 km
right ascension of ascending node: 200.2685°
argument of perigee: 4.7938°
revolutions per day: 14.84678857
mean anomaly at epoch: 355.3435°
orbit number at epoch: 16748

The dashed part of the orbit path shows where the satellite is in the earth's shadow,  

DLR